QPF
0.01 0.01 0.02 0.03 0.03 0.03 0.02 0.01 0.01 0.02 0.02 0.02 0.02 0.01 0.02 0.02 0.02 0.03 0.05 0.04 0.03 0.02 0.01 0.01 0.03 0.04 0.03 0.02 0.02 0.02 0.01 0.01 0.01 0.01 0.01 0.02 0.02 0.02 0.02 0.01 0.01 0.00 0.01
0.01 0.01 0.02 0.04 0.04 0.03 0.02 0.02 0.02 0.02 0.02 0.02 0.02 0.02 0.02 0.02 0.02 0.02 0.03 0.03 0.04 0.03 0.01 0.02 0.02 0.03 0.03 0.02 0.02 0.02 0.01 0.01 0.01 0.01 0.01 0.01 0.02 0.02 0.02 0.01 0.01 0.01 0.01
0.01 0.01 0.02 0.04 0.04 0.04 0.03 0.03 0.03 0.02 0.03 0.02 0.02 0.03 0.04 0.03 0.04 0.04 0.03 0.02 0.04 0.04 0.02 0.02 0.02 0.02 0.02 0.02 0.02 0.02 0.01 0.01 0.01 0.01 0.00 0.00 0.01 0.01 0.02 0.02 0.01 0.02 0.02
0.01 0.01 0.02 0.03 0.04 0.04 0.04 0.03 0.04 0.03 0.02 0.02 0.02 0.03 0.04 0.03 0.02 0.02 0.02 0.02 0.03 0.04 0.04 0.04 0.03 0.02 0.01 0.01 0.01 0.02 0.01 0.01 0.01 0.01 0.01 0.01 0.01 0.01 0.01 0.01 0.01 0.01 0.01
0.01 0.01 0.02 0.03 0.03 0.04 0.04 0.04 0.04 0.03 0.02 0.02 0.02 0.03 0.03 0.02 0.02 0.02 0.02 0.01 0.01 0.02 0.03 0.03 0.02 0.02 0.01 0.01 0.01 0.02 0.02 0.01 0.01 0.01 0.01 0.01 0.01 0.01 0.01 0.01 0.01 0.01 0.01
0.01 0.01 0.01 0.03 0.04 0.04 0.04 0.05 0.05 0.05 0.04 0.04 0.03 0.03 0.03 0.02 0.02 0.02 0.02 0.01 0.01 0.02 0.02 0.02 0.02 0.02 0.02 0.01 0.01 0.01 0.02 0.02 0.01 0.00 0.01 0.01 0.01 0.02 0.01 0.01 0.02 0.01 0.01
0.03 0.02 0.03 0.04 0.05 0.06 0.05 0.05 0.06 0.06 0.06 0.07 0.06 0.05 0.04 0.03 0.03 0.03 0.03 0.02 0.01 0.02 0.02 0.02 0.02 0.02 0.03 0.01 0.01 0.01 0.01 0.02 0.01 0.01 0.01 0.01 0.01 0.02 0.02 0.01 0.01 0.01 0.01
0.04 0.04 0.04 0.05 0.07 0.08 0.08 0.07 0.08 0.09 0.09 0.09 0.08 0.08 0.08 0.05 0.03 0.03 0.02 0.02 0.01 0.01 0.01 0.02 0.01 0.01 0.02 0.01 0.01 0.01 0.01 0.01 0.00 0.00 0.01 0.01 0.02 0.02 0.02 0.02 0.01 0.01 0.01
0.06 0.05 0.04 0.03 0.04 0.07 0.09 0.11 0.11 0.12 0.12 0.11 0.11 0.11 0.11 0.09 0.06 0.03 0.03 0.02 0.02 0.01 0.01 0.01 0.01 0.01 0.02 0.01 0.01 0.00 0.00 0.00 0.00 0.00 0.00 0.01 0.02 0.03 0.03 0.02 0.02 0.02 0.01
0.08 0.07 0.05 0.03 0.03 0.04 0.06 0.08 0.09 0.11 0.10 0.11 0.11 0.10 0.10 0.11 0.11 0.09 0.05 0.04 0.04 0.02 0.01 0.01 0.01 0.01 0.02 0.01 0.01 0.01 0.01 0.00 0.00 0.00 0.00 0.00 0.01 0.01 0.02 0.03 0.03 0.03 0.02
0.07 0.08 0.07 0.04 0.05 0.05 0.06 0.07 0.07 0.07 0.06 0.07 0.08 0.07 0.06 0.07 0.08 0.08 0.07 0.06 0.05 0.03 0.02 0.01 0.01 0.01 0.01 0.01 0.01 0.01 0.01 0.00 0.00 0.00 0.01 0.01 0.01 0.01 0.01 0.02 0.02 0.02 0.02
0.09 0.11 0.09 0.07 0.07 0.08 0.08 0.07 0.06 0.05 0.04 0.03 0.03 0.04 0.05 0.05 0.06 0.05 0.05 0.05 0.04 0.04 0.03 0.02 0.02 0.01 0.01 0.01 0.00 0.01 0.01 0.01 0.01 0.01 0.01 0.01 0.01 0.01 0.01 0.01 0.01 0.01 0.01
0.08 0.12 0.11 0.08 0.06 0.08 0.09 0.07 0.07 0.05 0.03 0.03 0.02 0.03 0.03 0.03 0.04 0.04 0.03 0.03 0.04 0.04 0.04 0.03 0.02 0.01 0.01 0.01 0.01 0.00 0.00 0.00 0.01 0.01 0.01 0.01 0.00 0.01 0.01 0.01 0.01 0.01 0.01
0.04 0.08 0.10 0.11 0.07 0.06 0.09 0.08 0.08 0.06 0.04 0.03 0.04 0.04 0.03 0.02 0.03 0.04 0.03 0.02 0.03 0.03 0.03 0.03 0.02 0.01 0.01 0.01 0.01 0.01 0.00 0.00 0.01 0.01 0.01 0.01 0.01 0.01 0.01 0.01 0.01 0.01 0.01
0.04 0.06 0.08 0.11 0.08 0.08 0.09 0.09 0.08 0.06 0.04 0.04 0.04 0.04 0.03 0.02 0.02 0.03 0.04 0.03 0.04 0.04 0.03 0.03 0.02 0.01 0.01 0.01 0.01 0.02 0.01 0.00 0.00 0.00 0.00 0.00 0.01 0.01 0.01 0.02 0.02 0.02 0.01
0.04 0.06 0.06 0.08 0.09 0.09 0.10 0.10 0.08 0.06 0.05 0.05 0.05 0.04 0.04 0.03 0.03 0.03 0.04 0.04 0.05 0.06 0.05 0.04 0.03 0.01 0.01 0.01 0.01 0.02 0.02 0.01 0.01 0.00 0.00 0.00 0.00 0.01 0.02 0.03 0.02 0.02 0.02
0.04 0.05 0.06 0.07 0.10 0.09 0.10 0.10 0.09 0.07 0.05 0.05 0.05 0.06 0.05 0.03 0.03 0.02 0.03 0.03 0.04 0.05 0.05 0.05 0.04 0.02 0.01 0.01 0.02 0.02 0.03 0.03 0.03 0.02 0.01 0.00 0.01 0.01 0.01 0.02 0.03 0.03 0.02
0.03 0.03 0.04 0.06 0.09 0.09 0.09 0.10 0.10 0.07 0.05 0.04 0.04 0.05 0.06 0.05 0.04 0.03 0.03 0.03 0.03 0.03 0.04 0.05 0.05 0.04 0.02 0.02 0.01 0.01 0.02 0.04 0.05 0.05 0.03 0.01 0.01 0.01 0.01 0.01 0.01 0.03 0.04
0.02 0.02 0.03 0.05 0.08 0.09 0.08 0.10 0.10 0.08 0.07 0.05 0.04 0.04 0.06 0.06 0.05 0.04 0.03 0.03 0.03 0.03 0.04 0.04 0.04 0.03 0.03 0.02 0.02 0.02 0.02 0.04 0.08 0.09 0.06 0.04 0.03 0.02 0.01 0.01 0.01 0.01 0.02
0.01 0.02 0.03 0.04 0.05 0.07 0.07 0.08 0.09 0.09 0.08 0.07 0.07 0.05 0.05 0.06 0.06 0.05 0.05 0.04 0.03 0.04 0.04 0.03 0.02 0.03 0.02 0.01 0.01 0.01 0.01 0.02 0.06 0.06 0.05 0.03 0.02 0.01 0.01 0.01 0.01 0.01 0.01
0.01 0.01 0.02 0.03 0.03 0.04 0.06 0.07 0.07 0.07 0.06 0.05 0.06 0.08 0.06 0.06 0.07 0.06 0.05 0.05 0.04 0.04 0.04 0.03 0.02 0.02 0.01 0.01 0.01 0.01 0.01 0.01 0.02 0.02 0.02 0.01 0.01 0.01 0.01 0.01 0.01 0.01 0.01
0.01 0.01 0.02 0.02 0.02 0.03 0.04 0.06 0.07 0.05 0.05 0.04 0.04 0.05 0.06 0.06 0.06 0.07 0.07 0.07 0.06 0.05 0.05 0.04 0.03 0.02 0.01 0.01 0.01 0.01 0.01 0.01 0.01 0.00 0.00 0.00 0.00 0.01 0.01 0.01 0.01 0.01 0.01
0.01 0.02 0.02 0.03 0.02 0.03 0.04 0.06 0.07 0.05 0.04 0.04 0.04 0.03 0.04 0.05 0.06 0.05 0.06 0.06 0.07 0.06 0.06 0.05 0.03 0.02 0.01 0.01 0.01 0.01 0.01 0.01 0.00 0.00 0.00 0.00 0.00 0.01 0.01 0.01 0.01 0.01 0.01
0.01 0.01 0.02 0.02 0.02 0.02 0.02 0.04 0.07 0.09 0.08 0.06 0.04 0.03 0.03 0.03 0.04 0.05 0.05 0.05 0.06 0.06 0.05 0.04 0.03 0.03 0.03 0.02 0.01 0.01 0.01 0.01 0.01 0.00 0.00 0.00 0.00 0.00 0.00 0.01 0.01 0.01 0.01
0.01 0.01 0.02 0.01 0.01 0.01 0.01 0.03 0.05 0.09 0.12 0.11 0.08 0.06 0.04 0.03 0.03 0.04 0.05 0.05 0.05 0.05 0.04 0.03 0.03 0.03 0.03 0.02 0.02 0.02 0.02 0.01 0.01 0.01 0.00 0.00 0.00 0.00 0.01 0.01 0.01 0.01 0.01
0.01 0.02 0.02 0.01 0.01 0.01 0.01 0.01 0.04 0.06 0.08 0.09 0.08 0.07 0.05 0.04 0.04 0.04 0.05 0.06 0.06 0.04 0.04 0.04 0.03 0.02 0.02 0.02 0.02 0.02 0.02 0.02 0.01 0.01 0.01 0.01 0.00 0.01 0.01 0.01 0.01 0.01 0.01
MSLP
1011.18 1011.11 1011.07 1011.08 1011.17 1011.30 1011.47 1011.63 1011.75 1011.83 1011.85 1011.84 1011.83 1011.84 1011.90 1012.01 1012.16 1012.33 1012.49 1012.61 1012.68 1012.71 1012.71 1012.72 1012.75 1012.84 1012.99 1013.20 1013.45 1013.73 1014.00 1014.25 1014.47 1014.66 1014.83 1014.98 1015.12 1015.25 1015.38 1015.50 1015.61 1015.70 1015.77
1010.81 1010.78 1010.78 1010.86 1011.02 1011.25 1011.50 1011.74 1011.93 1012.05 1012.11 1012.12 1012.12 1012.14 1012.21 1012.33 1012.48 1012.66 1012.82 1012.94 1013.01 1013.02 1012.99 1012.95 1012.94 1012.97 1013.06 1013.21 1013.42 1013.66 1013.93 1014.19 1014.44 1014.67 1014.88 1015.07 1015.25 1015.41 1015.56 1015.68 1015.79 1015.88 1015.96
1010.41 1010.41 1010.46 1010.60 1010.84 1011.15 1011.49 1011.82 1012.10 1012.29 1012.39 1012.44 1012.45 1012.48 1012.54 1012.65 1012.80 1012.97 1013.12 1013.23 1013.28 1013.27 1013.22 1013.15 1013.09 1013.07 1013.11 1013.21 1013.37 1013.58 1013.83 1014.10 1014.38 1014.65 1014.91 1015.15 1015.37 1015.56 1015.72 1015.86 1015.97 1016.06 1016.14
1010.12 1010.14 1010.22 1010.41 1010.71 1011.10 1011.52 1011.93 1012.27 1012.52 1012.67 1012.74 1012.78 1012.81 1012.87 1012.96 1013.09 1013.23 1013.35 1013.45 1013.48 1013.46 1013.40 1013.32 1013.23 1013.18 1013.17 1013.23 1013.35 1013.53 1013.76 1014.03 1014.32 1014.63 1014.93 1015.22 1015.47 1015.69 1015.86 1016.01 1016.12 1016.21 1016.30
1010.04 1010.07 1010.17 1010.40 1010.73 1011.16 1011.63 1012.07 1012.45 1012.74 1012.92 1013.02 1013.07 1013.10 1013.15 1013.22 1013.32 1013.43 1013.54 1013.61 1013.65 1013.63 1013.57 1013.49 1013.40 1013.33 1013.30 1013.32 1013.39 1013.53 1013.73 1013.99 1014.29 1014.61 1014.94 1015.25 1015.53 1015.77 1015.96 1016.11 1016.23 1016.33 1016.42
1010.20 1010.25 1010.36 1010.60 1010.95 1011.38 1011.84 1012.29 1012.66 1012.95 1013.14 1013.25 1013.30 1013.34 1013.38 1013.44 1013.52 1013.61 1013.70 1013.77 1013.80 1013.80 1013.76 1013.70 1013.63 1013.56 1013.51 1013.50 1013.53 1013.62 1013.78 1014.00 1014.27 1014.59 1014.92 1015.25 1015.54 1015.79 1016.00 1016.16 1016.29 1016.40 1016.50
1010.57 1010.63 1010.76 1011.00 1011.33 1011.73 1012.16 1012.56 1012.90 1013.15 1013.33 1013.43 1013.50 1013.54 1013.59 1013.65 1013.72 1013.79 1013.87 1013.93 1013.98 1014.00 1014.00 1013.97 1013.93 1013.88 1013.82 1013.78 1013.77 1013.80 1013.90 1014.06 1014.28 1014.56 1014.87 1015.18 1015.48 1015.74 1015.95 1016.13 1016.27 1016.40 1016.53
1011.03 1011.11 1011.27 1011.51 1011.82 1012.18 1012.54 1012.87 1013.14 1013.35 1013.50 1013.60 1013.68 1013.74 1013.80 1013.87 1013.94 1014.01 1014.08 1014.15 1014.21 1014.25 1014.29 1014.30 1014.29 1014.25 1014.20 1014.13 1014.08 1014.05 1014.06 1014.14 1014.29 1014.51 1014.77 1015.05 1015.33 1015.59 1015.81 1016.01 1016.18 1016.34 1016.50
1011.42 1011.56 1011.76 1012.01 1012.31 1012.62 1012.92 1013.17 1013.38 1013.55 1013.68 1013.78 1013.88 1013.97 1014.06 1014.14 1014.22 1014.29 1014.35 1014.41 1014.47 1014.53 1014.59 1014.64 1014.66 1014.65 1014.60 1014.51 1014.40 1014.30 1014.24 1014.23 1014.29 1014.43 1014.62 1014.86 1015.11 1015.36 1015.59 1015.81 1016.01 1016.21 1016.41
1011.63 1011.84 1012.10 1012.39 1012.69 1012.98 1013.23 1013.43 1013.60 1013.73 1013.85 1013.98 1014.11 1014.24 1014.36 1014.47 1014.55 1014.61 1014.66 1014.70 1014.75 1014.81 1014.88 1014.95 1015.00 1015.00 1014.95 1014.85 1014.70 1014.54 1014.39 1014.29 1014.26 1014.31 1014.43 1014.61 1014.83 1015.06 1015.30 1015.54 1015.78 1016.02 1016.27
1011.60 1011.89 1012.23 1012.57 1012.91 1013.19 1013.43 1013.61 1013.76 1013.89 1014.03 1014.19 1014.37 1014.54 1014.70 1014.83 1014.91 1014.95 1014.97 1014.98 1015.00 1015.05 1015.12 1015.19 1015.25 1015.27 1015.23 1015.11 1014.94 1014.73 1014.51 1014.33 1014.21 1014.17 1014.21 1014.33 1014.51 1014.73 1014.97 1015.23 1015.50 1015.79 1016.08
1011.35 1011.72 1012.13 1012.54 1012.92 1013.23 1013.49 1013.68 1013.85 1014.01 1014.20 1014.40 1014.63 1014.85 1015.04 1015.18 1015.25 1015.27 1015.24 1015.21 1015.19 1015.21 1015.27 1015.34 1015.41 1015.44 1015.41 1015.29 1015.09 1014.85 1014.58 1014.33 1014.14 1014.03 1014.00 1014.06 1014.19 1014.38 1014.62 1014.89 1015.19 1015.52 1015.86
1010.96 1011.38 1011.85 1012.32 1012.75 1013.11 1013.41 1013.65 1013.86 1014.08 1014.32 1014.58 1014.86 1015.12 1015.33 1015.46 1015.52 1015.50 1015.44 1015.37 1015.31 1015.30 1015.34 1015.41 1015.49 1015.53 1015.50 1015.38 1015.19 1014.92 1014.62 1014.33 1014.08 1013.91 1013.82 1013.82 1013.90 1014.06 1014.28 1014.55 1014.87 1015.22 1015.60
1010.57 1011.01 1011.50 1012.00 1012.46 1012.87 1013.21 1013.51 1013.80 1014.08 1014.39 1014.71 1015.02 1015.31 1015.53 1015.65 1015.69 1015.65 1015.55 1015.44 1015.37 1015.34 1015.36 1015.43 1015.51 1015.56 1015.54 1015.44 1015.25 1014.98 1014.67 1014.35 1014.06 1013.84 1013.69 1013.64 1013.68 1013.79 1013.98 1014.24 1014.56 1014.92 1015.32
1010.29 1010.68 1011.15 1011.64 1012.11 1012.55 1012.95 1013.32 1013.67 1014.03 1014.39 1014.76 1015.10 1015.40 1015.61 1015.73 1015.75 1015.68 1015.57 1015.46 1015.38 1015.35 1015.38 1015.45 1015.54 1015.59 1015.59 1015.49 1015.31 1015.04 1014.73 1014.40 1014.09 1013.83 1013.64 1013.54 1013.52 1013.59 1013.73 1013.96 1014.26 1014.62 1015.02
1010.18 1010.49 1010.88 1011.32 1011.77 1012.23 1012.66 1013.09 1013.51 1013.93 1014.35 1014.75 1015.11 1015.40 1015.59 1015.70 1015.70 1015.64 1015.55 1015.45 1015.39 1015.39 1015.44 1015.52 1015.61 1015.67 1015.66 1015.57 1015.39 1015.13 1014.82 1014.49 1014.16 1013.88 1013.65 1013.50 1013.43 1013.45 1013.54 1013.72 1013.99 1014.32 1014.71
1010.25 1010.43 1010.71 1011.07 1011.48 1011.93 1012.40 1012.88 1013.36 1013.84 1014.29 1014.71 1015.06 1015.33 1015.51 1015.60 1015.61 1015.57 1015.51 1015.46 1015.45 1015.48 1015.56 1015.66 1015.75 1015.80 1015.78 1015.68 1015.50 1015.24 1014.93 1014.60 1014.27 1013.97 1013.72 1013.52 1013.40 1013.36 1013.40 1013.53 1013.74 1014.04 1014.41
1010.44 1010.49 1010.64 1010.89 1011.25 1011.69 1012.18 1012.71 1013.25 1013.77 1014.25 1014.67 1015.01 1015.25 1015.41 1015.49 1015.51 1015.50 1015.49 1015.50 1015.56 1015.64 1015.75 1015.86 1015.95 1015.98 1015.93 1015.81 1015.61 1015.35 1015.04 1014.71 1014.38 1014.07 1013.80 1013.57 1013.40 1013.30 1013.29 1013.36 1013.52 1013.78 1014.12
1010.69 1010.59 1010.62 1010.78 1011.08 1011.50 1012.02 1012.59 1013.18 1013.75 1014.25 1014.67 1014.98 1015.20 1015.33 1015.40 1015.43 1015.47 1015.52 1015.60 1015.72 1015.85 1015.99 1016.11 1016.17 1016.17 1016.09 1015.93 1015.70 1015.43 1015.13 1014.80 1014.48 1014.17 1013.88 1013.63 1013.42 1013.27 1013.20 1013.21 1013.33 1013.55 1013.85
1010.91 1010.71 1010.62 1010.71 1010.97 1011.38 1011.93 1012.55 1013.19 1013.79 1014.31 1014.72 1015.01 1015.20 1015.30 1015.36 1015.41 1015.49 1015.59 1015.74 1015.91 1016.09 1016.24 1016.34 1016.38 1016.33 1016.20 1016.01 1015.76 1015.48 1015.18 1014.87 1014.56 1014.26 1013.96 1013.69 1013.45 1013.26 1013.14 1013.10 1013.17 1013.34 1013.60
1011.09 1010.80 1010.64 1010.67 1010.90 1011.32 1011.89 1012.56 1013.24 1013.87 1014.41 1014.81 1015.08 1015.24 1015.33 1015.38 1015.45 1015.55 1015.71 1015.90 1016.11 1016.31 1016.46 1016.54 1016.53 1016.44 1016.27 1016.04 1015.77 1015.49 1015.21 1014.92 1014.64 1014.35 1014.06 1013.77 1013.50 1013.27 1013.10 1013.02 1013.04 1013.16 1013.38
1011.21 1010.89 1010.68 1010.67 1010.88 1011.31 1011.90 1012.59 1013.31 1013.97 1014.52 1014.92 1015.17 1015.32 1015.39 1015.44 1015.52 1015.64 1015.83 1016.05 1016.28 1016.48 1016.62 1016.67 1016.62 1016.49 1016.28 1016.04 1015.77 1015.50 1015.24 1014.99 1014.73 1014.47 1014.18 1013.89 1013.59 1013.33 1013.11 1012.98 1012.95 1013.02 1013.20
1011.34 1011.00 1010.77 1010.73 1010.92 1011.33 1011.93 1012.63 1013.36 1014.04 1014.59 1014.99 1015.24 1015.38 1015.45 1015.51 1015.59 1015.74 1015.94 1016.17 1016.41 1016.60 1016.72 1016.74 1016.66 1016.49 1016.27 1016.02 1015.77 1015.54 1015.32 1015.11 1014.89 1014.65 1014.37 1014.07 1013.75 1013.45 1013.19 1013.00 1012.92 1012.94 1013.07
1011.52 1011.17 1010.92 1010.84 1010.99 1011.37 1011.95 1012.64 1013.36 1014.04 1014.59 1014.99 1015.25 1015.39 1015.48 1015.55 1015.65 1015.81 1016.02 1016.26 1016.49 1016.66 1016.76 1016.75 1016.66 1016.48 1016.27 1016.04 1015.83 1015.64 1015.47 1015.30 1015.12 1014.90 1014.64 1014.32 1013.98 1013.64 1013.33 1013.10 1012.95 1012.92 1012.99
1011.78 1011.42 1011.13 1011.01 1011.10 1011.42 1011.94 1012.59 1013.28 1013.94 1014.49 1014.90 1015.17 1015.34 1015.45 1015.55 1015.68 1015.86 1016.08 1016.31 1016.53 1016.69 1016.77 1016.75 1016.65 1016.48 1016.29 1016.10 1015.94 1015.80 1015.69 1015.57 1015.43 1015.23 1014.97 1014.64 1014.28 1013.90 1013.55 1013.26 1013.06 1012.96 1012.96
1012.11 1011.73 1011.40 1011.20 1011.21 1011.45 1011.89 1012.48 1013.12 1013.75 1014.30 1014.72 1015.03 1015.23 1015.38 1015.52 1015.68 1015.88 1016.11 1016.34 1016.55 1016.70 1016.76 1016.74 1016.65 1016.51 1016.35 1016.21 1016.09 1016.01 1015.95 1015.88 1015.76 1015.58 1015.33 1014.99 1014.61 1014.21 1013.82 1013.48 1013.22 1013.06 1012.99
Thickness
5720 5723 5725 5727 5728 5729 5729 5729 5729 5728 5728 5728 5728 5728 5727 5727 5727 5727 5726 5725 5725 5724 5724 5723 5722 5722 5721 5721 5720 5719 5718 5717 5717 5716 5716 5716 5715 5714 5713 5712 5712 5712 5711
5720 5721 5722 5723 5724 5725 5725 5725 5725 5725 5724 5724 5724 5724 5724 5724 5723 5723 5723 5722 5721 5721 5720 5719 5719 5718 5718 5717 5717 5716 5715 5714 5713 5713 5712 5712 5712 5711 5710 5709 5709 5708 5708
5717 5718 5719 5720 5720 5721 5721 5721 5721 5721 5721 5720 5720 5720 5720 5720 5720 5719 5719 5718 5718 5717 5716 5716 5716 5715 5714 5714 5713 5712 5712 5711 5710 5709 5708 5708 5708 5707 5707 5706 5705 5705 5704
5713 5713 5714 5715 5716 5717 5717 5717 5717 5717 5717 5717 5716 5716 5716 5716 5715 5715 5715 5714 5714 5713 5713 5713 5712 5712 5711 5710 5710 5709 5708 5707 5706 5705 5705 5704 5704 5704 5703 5702 5702 5701 5701
5706 5707 5709 5710 5711 5712 5713 5713 5713 5713 5713 5713 5712 5712 5712 5712 5711 5711 5710 5710 5710 5709 5709 5709 5708 5708 5708 5707 5706 5705 5704 5703 5702 5702 5702 5701 5701 5700 5700 5699 5698 5697 5697
5699 5701 5702 5704 5706 5707 5707 5708 5708 5708 5708 5708 5708 5708 5708 5708 5707 5706 5706 5706 5705 5705 5705 5705 5704 5704 5704 5703 5702 5702 5700 5699 5698 5698 5698 5697 5697 5696 5696 5695 5694 5693 5693
5692 5694 5696 5698 5700 5701 5702 5702 5703 5703 5703 5703 5703 5703 5703 5702 5702 5701 5701 5701 5701 5701 5700 5700 5700 5699 5699 5698 5698 5697 5696 5695 5695 5694 5693 5693 5693 5693 5692 5691 5690 5689 5688
5684 5686 5688 5690 5693 5694 5696 5697 5697 5698 5698 5698 5698 5698 5697 5697 5697 5697 5696 5696 5696 5696 5696 5695 5695 5695 5694 5693 5693 5692 5692 5691 5690 5689 5689 5689 5689 5688 5688 5687 5686 5685 5684
5676 5678 5680 5683 5684 5687 5689 5690 5691 5692 5693 5693 5693 5692 5692 5692 5691 5691 5691 5691 5690 5690 5690 5690 5689 5689 5688 5688 5687 5687 5686 5686 5685 5685 5684 5684 5684 5684 5683 5682 5681 5680 5680
5667 5668 5671 5674 5677 5679 5681 5684 5685 5686 5687 5687 5687 5687 5687 5687 5686 5686 5685 5685 5684 5684 5685 5684 5684 5683 5683 5682 5682 5681 5681 5680 5680 5679 5679 5679 5679 5679 5679 5677 5676 5675 5674
5657 5659 5663 5665 5669 5672 5674 5676 5678 5679 5680 5681 5681 5682 5681 5681 5680 5680 5679 5679 5679 5679 5679 5678 5677 5677 5676 5676 5676 5675 5675 5675 5674 5674 5673 5674 5674 5674 5673 5672 5671 5670 5669
5646 5650 5653 5657 5660 5664 5666 5668 5670 5672 5673 5674 5674 5675 5675 5675 5674 5674 5673 5673 5673 5673 5673 5672 5671 5670 5670 5669 5669 5669 5669 5669 5668 5668 5667 5668 5668 5668 5668 5667 5666 5665 5664
5637 5641 5645 5649 5652 5655 5657 5660 5662 5664 5665 5666 5667 5668 5668 5668 5667 5667 5667 5667 5667 5667 5666 5665 5664 5663 5663 5663 5662 5662 5662 5662 5662 5661 5661 5661 5662 5662 5662 5661 5660 5659 5658
5629 5632 5636 5639 5642 5646 5649 5651 5653 5655 5657 5658 5659 5660 5661 5660 5660 5660 5660 5660 5660 5660 5660 5658 5657 5656 5656 5656 5655 5655 5655 5655 5655 5655 5655 5655 5655 5655 5655 5655 5654 5653 5652
5620 5624 5627 5631 5634 5637 5640 5642 5644 5647 5648 5650 5651 5652 5653 5653 5652 5652 5653 5653 5653 5653 5652 5651 5650 5649 5649 5648 5648 5648 5647 5648 5648 5648 5648 5648 5648 5648 5648 5648 5648 5647 5646
5612 5616 5619 5623 5625 5628 5630 5633 5635 5637 5639 5640 5642 5643 5644 5645 5645 5645 5645 5645 5645 5645 5644 5643 5642 5642 5641 5641 5641 5641 5641 5640 5640 5640 5640 5640 5640 5640 5640 5640 5640 5640 5639
5602 5607 5610 5614 5616 5618 5621 5624 5626 5628 5630 5631 5633 5634 5635 5636 5636 5637 5637 5636 5636 5636 5635 5635 5634 5633 5633 5633 5633 5633 5633 5633 5633 5633 5633 5633 5632 5632 5632 5632 5632 5632 5631
5593 5597 5601 5605 5607 5608 5611 5614 5617 5619 5621 5622 5624 5625 5626 5627 5628 5628 5628 5628 5628 5627 5626 5625 5625 5624 5623 5623 5623 5624 5624 5625 5625 5625 5624 5624 5624 5623 5623 5623 5623 5623 5623
5585 5588 5592 5595 5598 5599 5602 5604 5606 5608 5610 5613 5614 5615 5616 5617 5618 5618 5619 5619 5619 5617 5617 5617 5615 5615 5614 5613 5614 5614 5615 5615 5615 5616 5615 5615 5615 5615 5614 5614 5613 5613 5613
5576 5580 5583 5585 5588 5590 5591 5594 5595 5597 5599 5602 5604 5605 5606 5607 5608 5609 5609 5609 5609 5608 5607 5607 5605 5604 5604 5604 5604 5604 5605 5605 5606 5606 5606 5606 5606 5605 5604 5604 5604 5603 5603
5567 5569 5572 5574 5577 5579 5580 5582 5583 5585 5588 5590 5593 5594 5595 5596 5598 5598 5599 5599 5599 5599 5598 5597 5596 5594 5593 5593 5592 5592 5594 5595 5595 5596 5596 5596 5596 5595 5594 5594 5594 5593 5593
5556 5558 5561 5563 5566 5568 5570 5572 5573 5574 5576 5579 5581 5583 5585 5586 5587 5588 5588 5588 5588 5588 5588 5587 5585 5583 5583 5583 5582 5580 5580 5583 5584 5586 5585 5585 5585 5585 5584 5583 5583 5583 5583
5545 5548 5551 5553 5555 5558 5560 5561 5562 5563 5565 5567 5569 5571 5573 5575 5576 5577 5578 5578 5577 5578 5578 5577 5575 5575 5573 5572 5572 5571 5570 5571 5571 5574 5575 5575 5575 5574 5574 5572 5572 5572 5572
5535 5537 5539 5542 5544 5547 5549 5550 5550 5551 5553 5554 5556 5558 5561 5563 5564 5565 5567 5567 5567 5567 5567 5567 5566 5565 5564 5562 5561 5561 5561 5561 5559 5560 5563 5564 5564 5564 5563 5563 5562 5561 5561
5526 5526 5527 5529 5532 5535 5537 5538 5538 5539 5540 5542 5544 5546 5549 5551 5553 5554 5555 5555 5556 5556 5557 5558 5558 5557 5555 5554 5552 5551 5550 5549 5548 5547 5550 5551 5551 5553 5553 5553 5552 5551 5550
5515 5515 5516 5518 5520 5522 5524 5526 5526 5527 5528 5529 5531 5533 5536 5538 5541 5543 5544 5544 5545 5546 5546 5547 5548 5547 5545 5544 5543 5543 5542 5540 5538 5537 5537 5538 5539 5541 5542 5542 5542 5541 5540